Weather History for Soldotna, AK

Change the Weather History Date:

Monday, January 31, 2011

  Actual Average Record
Temperature  
Mean Temperature 27 °F -  
Max Temperature 30 °F 24 °F 40 °F (1983)
Min Temperature 24 °F 9 °F -26 °F (1989)
Degree Days  
Heating Degree Days 38    
Moisture  
Dew Point 24 °F    
Average Humidity 82    
Maximum Humidity 93    
Minimum Humidity 64    
Precipitation  
Precipitation 0.00 in - - ()
Sea Level Pressure  
Sea Level Pressure 29.53 in    
Wind  
Wind Speed 6 mph (NE)    
Max Wind Speed 10 mph    
Max Gust Speed -    
Visibility 6 miles    
Events      
Averages and records for this station are not official NWS values.
T = Trace of Precipitation, MM = Missing Value Source: NWS Daily Summary

Daily Weather History Graph

Daily Weather History Graph

Search for Another Location

Airport:

Trip Planner

Search our weather history database for the weather conditions in past years. The results will help you decide how hot, cold, wet, or windy it might be!

Date:

Astronomy

Jan. 31, 2011 Rise Set
Actual Time 9:22 AM AKST 5:13 PM AKST
Civil Twilight 8:34 AM AKST 6:01 PM AKST
Nautical Twilight 7:42 AM AKST 6:53 PM AKST
Astronomical Twilight 6:53 AM AKST 7:42 PM AKST
Moon 8:22 AM AKST (1/31) 2:46 PM AKST (1/31)
Length of Visible Light 9h 27m
Length of Day
7h 50m
Waning Crescent, 5% of the Moon is Illuminated
Jan 31
Waning Crescent
Feb 2
New
Feb 10
First Quarter
Feb 17
Full
Feb 24
Last Quarter

Hourly Weather History & Observations

Time (AKST) Temp. Windchill Dew Point Humidity Pressure Visibility Wind Dir Wind Speed Gust Speed Precip Events Conditions
12:56 AM 28.4 °F 20.4 °F 17.6 °F 64% 29.76 in 10.0 mi NE 8.1 mph - N/A   Clear
1:56 AM 28.4 °F 22.2 °F 19.4 °F 69% 29.74 in 10.0 mi ENE 5.8 mph - N/A   Mostly Cloudy
2:56 AM 28.4 °F 23.3 °F 19.4 °F 69% 29.74 in 10.0 mi ENE 4.6 mph - N/A   Scattered Clouds
3:56 AM 28.4 °F 21.2 °F 19.4 °F 69% 29.72 in 10.0 mi NE 6.9 mph - N/A   Mostly Cloudy
4:56 AM 28.4 °F 21.2 °F 17.6 °F 64% 29.70 in 10.0 mi ENE 6.9 mph - N/A   Mostly Cloudy
5:56 AM 28.4 °F 21.2 °F 17.6 °F 64% 29.69 in 10.0 mi ENE 6.9 mph - N/A   Clear
6:56 AM 28.4 °F 19.1 °F 19.4 °F 69% 29.69 in 10.0 mi NE 10.4 mph - N/A   Overcast
7:56 AM 30.2 °F 24.3 °F 21.2 °F 69% 29.70 in 10.0 mi ENE 5.8 mph - N/A   Overcast
8:56 AM 30.2 °F 24.3 °F 23.0 °F 75% 29.72 in 10.0 mi ENE 5.8 mph - N/A   Mostly Cloudy
9:56 AM 26.6 °F 19.1 °F 21.2 °F 80% 29.73 in 10.0 mi ESE 6.9 mph - N/A   Overcast
10:56 AM 24.8 °F 16.1 °F 19.4 °F 80% 29.75 in 10.0 mi East 8.1 mph - N/A   Partly Cloudy
11:56 AM 26.6 °F 19.1 °F 21.2 °F 80% 29.73 in 10.0 mi East 6.9 mph - N/A   Clear
12:56 PM 28.4 °F - 24.8 °F 86% 29.75 in 10.0 mi Calm Calm - N/A   Mostly Cloudy
1:56 PM 28.4 °F - 24.8 °F 86% 29.73 in 10.0 mi Calm Calm - N/A   Clear
2:56 PM 30.2 °F 26.7 °F 26.6 °F 86% 29.70 in 10.0 mi West 3.5 mph - N/A   Clear
3:56 PM 30.2 °F 25.4 °F 24.8 °F 80% 29.66 in 10.0 mi West 4.6 mph - N/A   Partly Cloudy
4:56 PM 30.2 °F - 24.8 °F 80% 29.61 in 10.0 mi Calm Calm - N/A   Overcast
5:48 PM 30.2 °F 24.3 °F 24.8 °F 80% 29.58 in 2.5 mi NNE 5.8 mph - N/A   Overcast
5:53 PM 30.2 °F 25.4 °F 26.6 °F 86% 29.58 in 1.8 mi North 4.6 mph - N/A   Overcast
5:56 PM 30.2 °F 25.4 °F 26.6 °F 86% 29.57 in 1.8 mi North 4.6 mph - N/A   Overcast
6:09 PM 30.2 °F 26.7 °F 28.4 °F 93% 29.56 in 2.0 mi NNW 3.5 mph - N/A   Overcast
6:15 PM 30.2 °F 26.7 °F 28.4 °F 93% 29.55 in 3.0 mi NNW 3.5 mph - N/A   Overcast
6:56 PM 28.4 °F 23.3 °F 24.8 °F 86% 29.53 in 10.0 mi NE 4.6 mph - N/A   Mostly Cloudy
7:13 PM 28.4 °F 22.2 °F 24.8 °F 86% 29.51 in 2.5 mi NNE 5.8 mph - N/A   Overcast
7:19 PM 28.4 °F 22.2 °F 24.8 °F 86% 29.50 in 1.8 mi NNE 5.8 mph - N/A   Overcast
7:24 PM 28.4 °F 24.6 °F 24.8 °F 86% 29.50 in 2.0 mi NNE 3.5 mph - N/A   Overcast
7:41 PM 28.4 °F 24.6 °F 24.8 °F 86% 29.48 in 3.0 mi ENE 3.5 mph - N/A   Overcast
7:56 PM 28.4 °F 23.3 °F 23.0 °F 80% 29.46 in 7.0 mi NE 4.6 mph - N/A   Overcast
8:56 PM 28.4 °F 23.3 °F 24.8 °F 86% 29.40 in 10.0 mi ENE 4.6 mph - N/A   Overcast
9:56 PM 28.4 °F 24.6 °F 24.8 °F 86% 29.35 in 10.0 mi NE 3.5 mph - N/A   Overcast
10:19 PM 28.4 °F 20.4 °F 24.8 °F 86% 29.33 in 2.5 mi NNE 8.1 mph - N/A   Overcast
10:20 PM 28.4 °F 21.2 °F 24.8 °F 86% 29.32 in 3.0 mi NNE 6.9 mph - N/A   Overcast
10:22 PM 28.4 °F 22.2 °F 24.8 °F 86% 29.32 in 2.5 mi NE 5.8 mph - N/A   Overcast
10:30 PM 28.4 °F 22.2 °F 24.8 °F 86% 29.31 in 1.8 mi NE 5.8 mph - N/A   Overcast
10:41 PM 28.4 °F 24.6 °F 24.8 °F 86% 29.30 in 0.8 mi NE 3.5 mph - N/A   Overcast
10:48 PM 28.4 °F 23.3 °F 26.6 °F 93% 29.29 in 1.0 mi NNE 4.6 mph - N/A   Overcast
10:56 PM 28.4 °F 24.6 °F 26.6 °F 93% 29.29 in 1.0 mi NE 3.5 mph - N/A   Overcast
10:57 PM 28.4 °F 24.6 °F 26.6 °F 93% 29.29 in 0.8 mi North 3.5 mph - N/A   Overcast
11:11 PM 28.4 °F - 26.6 °F 93% 29.28 in 1.0 mi Calm Calm - N/A   Overcast
11:38 PM 30.2 °F 26.7 °F 26.6 °F 86% 29.28 in 2.0 mi NNE 3.5 mph - N/A   Overcast
11:47 PM 30.2 °F 25.4 °F 26.6 °F 86% 29.28 in 1.8 mi NNE 4.6 mph - N/A   Overcast
11:56 PM 30.2 °F 26.7 °F 26.6 °F 86% 29.27 in 1.5 mi NNE 3.5 mph - N/A   Overcast